This is the latest recevied weather packets stored in our database for station/object KC5L-7. If no packets are shown the sender has not sent any weather packets the latest 10 day(s).
| Time | Temp. | Humidity | Pressure | Rain* | Wind** | Luminosity | Snow |
|---|---|---|---|---|---|---|---|
| 1777638681 | 16.67° C | 96% | 1011 hPa | 0 mm | - | - | - |
| 1777638081 | 16.67° C | 96% | 1011 hPa | 0 mm | - | - | - |
| 1777637481 | 16.67° C | 96% | 1010.8 hPa | 0 mm | - | - | - |
| 1777636281 | 16.67° C | 96% | 1010.2 hPa | 1.02 mm | - | - | - |
| 1777635681 | 16.67° C | 96% | 1010.4 hPa | 2.03 mm | - | - | - |
| 1777635081 | 16.67° C | 96% | 1010.6 hPa | 2.54 mm | - | - | - |
| 1777634482 | 16.67° C | 96% | 1010.5 hPa | 3.05 mm | - | - | - |
| 1777633881 | 16.67° C | 96% | 1009.8 hPa | 3.05 mm | - | - | - |
| 1777633281 | 16.67° C | 96% | 1007.9 hPa | 4.83 mm | - | - | - |
| 1777632681 | 16.67° C | 96% | 1011.2 hPa | 3.81 mm | - | - | - |
| 1777631482 | 16.67° C | 96% | 1010.9 hPa | 2.54 mm | - | - | - |
| 1777631068 | 16.67° C | 96% | 1010.8 hPa | 2.54 mm | - | - | - |
| 1777630881 | 16.67° C | 96% | 1010.8 hPa | 2.54 mm | - | - | - |
| 1777630282 | 16.67° C | 96% | 1010.4 hPa | 3.81 mm | - | - | - |
| 1777629681 | 17.22° C | 96% | 1011 hPa | 4.06 mm | - | - | - |
| 1777629081 | 17.22° C | 96% | 1010 hPa | 4.32 mm | - | - | - |
| 1777628482 | 17.22° C | 96% | 1009.6 hPa | 5.59 mm | - | - | - |
| 1777627881 | 17.22° C | 96% | 1009.6 hPa | 7.37 mm | - | - | - |
| 1777627281 | 17.22° C | 96% | 1009.3 hPa | 6.86 mm | - | - | - |
| 1777626681 | 17.22° C | 96% | 1010 hPa | 3.81 mm | - | - | - |
| 1777626082 | 17.22° C | 96% | 1010.8 hPa | 3.3 mm | - | - | - |
| 1777625482 | 17.22° C | 96% | 1010.2 hPa | 3.3 mm | - | - | - |
| 1777624281 | 17.78° C | 94% | 1009.5 hPa | 1.52 mm | - | - | - |
| 1777623682 | 17.78° C | 94% | 1010.2 hPa | 2.29 mm | - | - | - |
| 1777623081 | 17.78° C | 94% | 1009.2 hPa | 5.33 mm | - | - | - |
* Rain latest hour (hover to see other rain measurements)
** Current wind speed in m/s (hover to see current wind gust speed)